datetime,flow volume
1905-03-01,3490.90909
1905-03-02,3709.09091
1905-03-03,3709.09091
1905-03-04,4066.1157
1905-03-05,4204.95868
1905-03-06,4204.95868
1905-03-07,4641.32231
1905-03-08,5395.04132
1905-03-09,5752.06612
1905-03-10,6942.14876
1905-03-11,7616.52893
1905-03-12,7378.5124
1905-03-13,6723.96694
1905-03-14,6307.43802
1905-03-15,6109.09091
1905-03-16,6109.09091
1905-03-17,6109.09091
1905-03-18,6109.09091
1905-03-19,6109.09091
1905-03-20,6505.78512
1905-03-21,6307.43802
1905-03-22,7160.33058
1905-03-23,7378.5124
1905-03-24,6942.14876
1905-03-25,6505.78512
1905-03-26,6505.78512
1905-03-27,6505.78512
1905-03-28,6505.78512
1905-03-29,6505.78512
1905-03-30,6109.09091
1905-03-31,6109.09091
1905-04-01,5752.06612
1905-04-02,6307.43802
1905-04-03,6505.78512
1905-04-04,5752.06612
1905-04-05,5395.04132
1905-04-06,5395.04132
1905-04-07,5395.04132
1905-04-08,5395.04132
1905-04-09,5752.06612
1905-04-10,5395.04132
1905-04-11,5395.04132
1905-04-12,5573.55372
1905-04-13,6307.43802
1905-04-14,7378.5124
1905-04-15,8052.89256
1905-04-16,9322.31405
1905-04-17,8786.77686
1905-04-18,8786.77686
1905-04-19,10710.7438
1905-04-20,10710.7438
1905-04-21,9600.0
1905-04-22,9322.31405
1905-04-23,9857.85124
1905-04-24,10135.5372
1905-04-25,10710.7438
1905-04-26,10710.7438
1905-04-27,9857.85124
1905-04-28,10135.5372
1905-04-29,11325.6198
1905-04-30,12614.876
1905-05-01,12614.876
1905-05-02,13626.4463
1905-05-03,17692.562
1905-05-04,20033.0579
1905-05-05,23008.2645
1905-05-06,24595.0413
1905-05-07,24000.0
1905-05-08,21421.4876
1905-05-09,18604.9587
1905-05-10,17692.562
1905-05-11,15947.1074
1905-05-12,15947.1074
1905-05-13,17692.562
1905-05-14,21024.7934
1905-05-15,19080.9917
1905-05-16,17256.1984
1905-05-17,15947.1074
1905-05-18,15947.1074
1905-05-19,15947.1074
1905-05-20,17692.562
1905-05-21,21421.4876
1905-05-22,27173.5537
1905-05-23,31735.5372
1905-05-24,35900.8265
1905-05-25,39867.7686
1905-05-26,43239.6694
1905-05-27,45818.1818
1905-05-28,48000.0
1905-05-29,45818.1818
1905-05-30,45818.1818
1905-05-31,45223.1405
1905-06-01,44628.0992
1905-06-02,42446.281
1905-06-03,45223.1405
1905-06-04,48595.0413
1905-06-05,53553.719
1905-06-06,56330.5785
1905-06-07,57123.9669
1905-06-08,59900.8265
1905-06-09,63471.0744
1905-06-10,67239.6694
1905-06-11,66446.281
1905-06-12,59900.8265
1905-06-13,62082.6446
1905-06-14,62082.6446
1905-06-15,58512.3967
1905-06-16,57123.9669
1905-06-17,48000.0
1905-06-18,48595.0413
1905-06-19,47206.6116
1905-06-20,45818.1818
1905-06-21,43239.6694
1905-06-22,40462.8099
1905-06-23,39074.3802
1905-06-24,37289.2562
1905-06-25,36495.8678
1905-06-26,34115.7025
1905-06-27,32925.6198
1905-06-28,30545.4546
1905-06-29,29355.3719
1905-06-30,27768.595
1905-07-01,26578.5124
1905-07-02,25586.7769
1905-07-03,24595.0413
1905-07-04,24000.0
1905-07-05,23404.9587
1905-07-06,22413.2231
1905-07-07,21421.4876
1905-07-08,20429.7521
1905-07-09,19537.1901
1905-07-10,18604.9587
1905-07-11,17692.562
1905-07-12,16383.4711
1905-07-13,15133.8843
1905-07-14,14757.0248
1905-07-15,13289.2562
1905-07-16,12932.2314
1905-07-17,12614.876
1905-07-18,11960.3306
1905-07-19,11642.9752
1905-07-20,11325.6198
1905-07-21,11008.2645
1905-07-22,11008.2645
1905-07-23,10413.2231
1905-07-24,10413.2231
1905-07-25,9857.85124
1905-07-26,9600.0
1905-07-27,9322.31405
1905-07-28,8786.77686
1905-07-29,8528.92562
1905-07-30,8290.90909
1905-07-31,8290.90909
1905-08-01,7616.52893
1905-08-02,7378.5124
1905-08-03,7378.5124
1905-08-04,7378.5124
1905-08-05,7378.5124
1905-08-06,7378.5124
1905-08-07,6942.14876
1905-08-08,6505.78512
1905-08-09,6109.09091
1905-08-10,6109.09091
1905-08-11,5752.06612
1905-08-12,5573.55372
1905-08-13,5395.04132
1905-08-14,5395.04132
1905-08-15,5395.04132
1905-08-16,5395.04132
1905-08-17,5236.36364
1905-08-18,4919.00826
1905-08-19,4482.64463
1905-08-20,4482.64463
1905-08-21,4482.64463
1905-08-22,4482.64463
1905-08-23,4482.64463
1905-08-24,3947.10744
1905-08-25,3947.10744
1905-08-26,4343.80165
1905-08-27,4343.80165
1905-08-28,3947.10744
1905-08-29,3947.10744
1905-08-30,3828.09917
1905-08-31,3709.09091
1905-09-01,3709.09091
1905-09-02,3709.09091
1905-09-03,3709.09091
1905-09-04,3709.09091
1905-09-05,4085.95041
1905-09-06,4085.95041
1905-09-07,6109.09091
1905-09-08,5236.36364
1905-09-09,4919.00826
1905-09-10,5236.36364
1905-09-11,5573.55372
1905-09-12,5573.55372
1905-09-13,4919.00826
1905-09-14,4641.32231
1905-09-15,4085.95041
1905-09-16,3947.10744
1905-09-17,3709.09091
1905-09-18,3947.10744
1905-09-19,4204.95868
1905-09-20,3947.10744
1905-09-21,4343.80165
1905-09-22,4482.64463
1905-09-23,4780.16529
1905-09-24,4482.64463
1905-09-25,5077.68595
1905-09-26,5236.36364
1905-09-27,5752.06612
1905-09-28,5930.57851
1905-09-29,8052.89256
1905-09-30,11960.3306
1905-10-01,12277.686
1905-10-02,8290.90909
1905-10-03,6942.14876
1905-10-04,6723.96694
1905-10-05,5930.57851
1905-10-06,5752.06612
1905-10-07,5236.36364
1905-10-08,5077.68595
1905-10-09,4641.32231
1905-10-10,4780.16529
1905-10-11,5077.68595
1905-10-12,4780.16529
1905-10-13,4482.64463
1905-10-14,4641.32231
1905-10-15,4204.95868
1905-10-16,4204.95868
1905-10-17,4204.95868
1905-10-18,4204.95868
1905-10-19,3947.10744
1905-10-20,3709.09091
1905-10-21,3709.09091
1905-10-22,3947.10744
1905-10-23,4085.95041
1905-10-24,3947.10744
1905-10-25,3947.10744
1905-10-26,3947.10744
1905-10-27,3947.10744
1905-10-28,3947.10744
1905-10-29,3947.10744
1905-10-30,3947.10744
1905-10-31,3947.10744
1905-11-01,3947.10744
1905-11-02,4085.95041
1905-11-03,3828.09917
1905-11-04,3609.91736
1905-11-05,4085.95041
1905-11-06,4343.80165
1905-11-07,4204.95868
1905-11-08,4204.95868
1905-11-09,4482.64463
1905-11-10,4204.95868
1905-11-11,3947.10744
1905-11-12,3828.09917
1905-11-13,3709.09091
1905-11-14,3609.91736
1905-11-15,3947.10744
1905-11-16,3947.10744
1905-11-17,3947.10744
1905-11-18,3947.10744
1905-11-19,3709.09091
1905-11-20,3709.09091
1905-11-21,3947.10744
1905-11-22,5077.68595
1905-11-23,4641.32231
1905-11-24,4482.64463
1905-11-25,4204.95868
1905-11-26,3947.10744
1905-11-27,4085.95041
1905-11-28,4343.80165
1905-11-29,4204.95868
1905-11-30,3947.10744
1905-12-01,3709.09091
1905-12-02,3490.90909
1905-12-03,3074.38017
1905-12-04,2717.35537
1905-12-05,2717.35537
1905-12-06,2558.67769
1905-12-07,2558.67769
1905-12-08,2419.83471
1905-12-09,2419.83471
1905-12-10,2419.83471
1905-12-11,2558.67769
1905-12-12,2638.01653
1905-12-13,2717.35537
1905-12-14,2717.35537
1905-12-15,2717.35537
1905-12-16,2558.67769
1905-12-17,2717.35537
1905-12-18,2717.35537
1905-12-19,2717.35537
1905-12-20,2717.35537
1905-12-21,2380.16529
1905-12-22,2380.16529
1905-12-23,2380.16529
1905-12-24,2380.16529
1905-12-25,2380.16529
1905-12-26,2380.16529
1905-12-27,2380.16529
1905-12-28,2380.16529
1905-12-29,2380.16529
1905-12-30,2380.16529
1905-12-31,2380.16529
1906-01-01,2776.8595
1906-01-02,2776.8595
1906-01-03,2776.8595
1906-01-04,2776.8595
1906-01-05,2776.8595
1906-01-06,2776.8595
1906-01-07,2776.8595
1906-01-08,2776.8595
1906-01-09,2776.8595
1906-01-10,2776.8595
1906-01-11,2776.8595
1906-01-12,2776.8595
1906-01-13,2776.8595
1906-01-14,2776.8595
1906-01-15,2776.8595
1906-01-16,2776.8595
1906-01-17,2776.8595
1906-01-18,2776.8595
1906-01-19,2776.8595
1906-01-20,2776.8595
1906-01-21,2776.8595
1906-01-22,2776.8595
1906-01-23,2776.8595
1906-01-24,2776.8595
1906-01-25,2776.8595
1906-01-26,2776.8595
1906-01-27,2776.8595
1906-01-28,2776.8595
1906-01-29,2776.8595
1906-01-30,2776.8595
1906-01-31,2776.8595
1906-02-01,3173.55372
1906-02-02,3173.55372
1906-02-03,3173.55372
1906-02-04,3173.55372
1906-02-05,3173.55372
1906-02-06,3173.55372
1906-02-07,3173.55372
1906-02-08,3173.55372
1906-02-09,3173.55372
1906-02-10,2975.20661
1906-02-11,2975.20661
1906-02-12,2975.20661
1906-02-13,2975.20661
1906-02-14,2975.20661
1906-02-15,2975.20661
1906-02-16,2975.20661
1906-02-17,2975.20661
1906-02-18,2975.20661
1906-02-19,2975.20661
1906-02-20,2975.20661
1906-02-21,3570.24793
1906-02-22,3570.24793
1906-02-23,3570.24793
1906-02-24,3570.24793
1906-02-25,3570.24793
1906-02-26,3570.24793
1906-02-27,3570.24793
1906-02-28,3490.90909
1906-03-01,3709.09091
1906-03-02,3709.09091
1906-03-03,3709.09091
1906-03-04,4343.80165
1906-03-05,4482.64463
1906-03-06,4641.32231
1906-03-07,4780.16529
1906-03-08,4919.00826
1906-03-09,5236.36364
1906-03-10,5236.36364
1906-03-11,5236.36364
1906-03-12,6307.43802
1906-03-13,7834.71074
1906-03-14,10413.2231
1906-03-15,11008.2645
1906-03-16,10710.7438
1906-03-17,9857.85124
1906-03-18,8786.77686
1906-03-19,8290.90909
1906-03-20,7378.5124
1906-03-21,5930.57851
1906-03-22,6723.96694
1906-03-23,8052.89256
1906-03-24,9857.85124
1906-03-25,11960.3306
1906-03-26,19080.9917
1906-03-27,29355.3719
1906-03-28,43239.6694
1906-03-29,40462.8099
1906-03-30,37289.2562
1906-03-31,32925.6198
1906-04-01,24000.0
1906-04-02,23008.2645
1906-04-03,18604.9587
1906-04-04,16800.0
1906-04-05,15947.1074
1906-04-06,15133.8843
1906-04-07,14003.3058
1906-04-08,11008.2645
1906-04-09,11008.2645
1906-04-10,10710.7438
1906-04-11,11960.3306
1906-04-12,14003.3058
1906-04-13,13626.4463
1906-04-14,13626.4463
1906-04-15,14360.3306
1906-04-16,17256.1984
1906-04-17,16800.0
1906-04-18,16383.4711
1906-04-19,16800.0
1906-04-20,17256.1984
1906-04-21,16383.4711
1906-04-22,19537.1901
1906-04-23,23008.2645
1906-04-24,24991.7355
1906-04-25,25983.4711
1906-04-26,27768.595
1906-04-27,27173.5537
1906-04-28,28760.3306
1906-04-29,33520.6612
1906-04-30,30545.4546
1906-05-01,28165.2893
1906-05-02,26578.5124
1906-05-03,25983.4711
1906-05-04,24991.7355
1906-05-05,24991.7355
1906-05-06,24595.0413
1906-05-07,25586.7769
1906-05-08,26578.5124
1906-05-09,27173.5537
1906-05-10,27768.595
1906-05-11,35305.7851
1906-05-12,39867.7686
1906-05-13,43041.3223
1906-05-14,49983.4711
1906-05-15,59900.8265
1906-05-16,63471.0744
1906-05-17,62082.6446
1906-05-18,60694.2149
1906-05-19,62082.6446
1906-05-20,60694.2149
1906-05-21,61487.6033
1906-05-22,62876.0331
1906-05-23,64264.4628
1906-05-24,65652.8926
1906-05-25,65652.8926
1906-05-26,65652.8926
1906-05-27,64264.4628
1906-05-28,65652.8926
1906-05-29,67834.7107
1906-05-30,68231.405
1906-05-31,72396.6942
1906-06-01,56528.9256
1906-06-02,56528.9256
1906-06-03,56528.9256
1906-06-04,56528.9256
1906-06-05,56528.9256
1906-06-06,56528.9256
1906-06-07,56528.9256
1906-06-08,56528.9256
1906-06-09,56528.9256
1906-06-10,56528.9256
1906-06-11,56528.9256
1906-06-12,56528.9256
1906-06-13,56528.9256
1906-06-14,56528.9256
1906-06-15,56528.9256
1906-06-16,56528.9256
1906-06-17,56528.9256
1906-06-18,56528.9256
1906-06-19,56528.9256
1906-06-20,56528.9256
1906-06-21,56528.9256
1906-06-22,56528.9256
1906-06-23,56528.9256
1906-06-24,56528.9256
1906-06-25,56528.9256
1906-06-26,56528.9256
1906-06-27,56528.9256
1906-06-28,56528.9256
1906-06-29,56528.9256
1906-06-30,56528.9256
1906-07-01,28165.2893
1906-07-02,29355.3719
1906-07-03,30545.4546
1906-07-04,31140.4959
1906-07-05,31140.4959
1906-07-06,31140.4959
1906-07-07,31140.4959
1906-07-08,31140.4959
1906-07-09,29950.4132
1906-07-10,29950.4132
1906-07-11,31140.4959
1906-07-12,31140.4959
1906-07-13,30545.4546
1906-07-14,29950.4132
1906-07-15,29950.4132
1906-07-16,29355.3719
1906-07-17,28760.3306
1906-07-18,28760.3306
1906-07-19,27768.595
1906-07-20,28165.2893
1906-07-21,27173.5537
1906-07-22,25586.7769
1906-07-23,24000.0
1906-07-24,21421.4876
1906-07-25,20429.7521
1906-07-26,20429.7521
1906-07-27,19080.9917
1906-07-28,18604.9587
1906-07-29,17692.562
1906-07-30,16383.4711
1906-07-31,15947.1074
1906-08-01,15550.4132
1906-08-02,16383.4711
1906-08-03,15550.4132
1906-08-04,15947.1074
1906-08-05,14360.3306
1906-08-06,14003.3058
1906-08-07,13626.4463
1906-08-08,12932.2314
1906-08-09,12277.686
1906-08-10,11960.3306
1906-08-11,11325.6198
1906-08-12,10413.2231
1906-08-13,10413.2231
1906-08-14,10413.2231
1906-08-15,10710.7438
1906-08-16,9857.85124
1906-08-17,9857.85124
1906-08-18,9600.0
1906-08-19,8786.77686
1906-08-20,8786.77686
1906-08-21,9322.31405
1906-08-22,11008.2645
1906-08-23,13289.2562
1906-08-24,14757.0248
1906-08-25,12614.876
1906-08-26,11642.9752
1906-08-27,11325.6198
1906-08-28,12614.876
1906-08-29,12932.2314
1906-08-30,14003.3058
1906-08-31,13289.2562
1906-09-01,13289.2562
1906-09-02,14757.0248
1906-09-03,13626.4463
1906-09-04,12614.876
1906-09-05,12614.876
1906-09-06,12932.2314
1906-09-07,12932.2314
1906-09-08,11960.3306
1906-09-09,11008.2645
1906-09-10,10413.2231
1906-09-11,10135.5372
1906-09-12,9322.31405
1906-09-13,8786.77686
1906-09-14,8290.90909
1906-09-15,8052.89256
1906-09-16,9044.6281
1906-09-17,8528.92562
1906-09-18,9322.31405
1906-09-19,10413.2231
1906-09-20,9044.6281
1906-09-21,9044.6281
1906-09-22,10710.7438
1906-09-23,9322.31405
1906-09-24,8786.77686
1906-09-25,8786.77686
1906-09-26,8290.90909
1906-09-27,7834.71074
1906-09-28,7616.52893
1906-09-29,7378.5124
1906-09-30,7378.5124
1906-10-01,7378.5124
1906-10-02,6942.14876
1906-10-03,6942.14876
1906-10-04,6942.14876
1906-10-05,6942.14876
1906-10-06,6505.78512
1906-10-07,6505.78512
1906-10-08,6307.43802
1906-10-09,6109.09091
1906-10-10,6109.09091
1906-10-11,6109.09091
1906-10-12,6109.09091
1906-10-13,6109.09091
1906-10-14,5752.06612
1906-10-15,5752.06612
1906-10-16,5752.06612
1906-10-17,5752.06612
1906-10-18,5752.06612
1906-10-19,5395.04132
1906-10-20,5395.04132
1906-10-21,5395.04132
1906-10-22,5752.06612
1906-10-23,5752.06612
1906-10-24,5752.06612
1906-10-25,5752.06612
1906-10-26,5752.06612
1906-10-27,5573.55372
1906-10-28,5395.04132
1906-10-29,5077.68595
1906-10-30,5395.04132
1906-10-31,5752.06612
1906-11-01,6109.09091
1906-11-02,11642.9752
1906-11-03,9322.31405
1906-11-04,9857.85124
1906-11-05,9857.85124
1906-11-06,9044.6281
1906-11-07,8052.89256
1906-11-08,7378.5124
1906-11-09,7378.5124
1906-11-10,7378.5124
1906-11-11,7378.5124
1906-11-12,7160.33058
1906-11-13,6942.14876
1906-11-14,6942.14876
1906-11-15,6505.78512
1906-11-16,6505.78512
1906-11-17,6505.78512
1906-11-18,6307.43802
1906-11-19,6109.09091
1906-11-20,5573.55372
1906-11-21,4919.00826
1906-11-22,4482.64463
1906-11-23,3709.09091
1906-11-24,3490.90909
1906-11-25,3709.09091
1906-11-26,4482.64463
1906-11-27,4780.16529
1906-11-28,4641.32231
1906-11-29,4085.95041
1906-11-30,3609.91736
1906-12-01,3371.90083
1906-12-02,3609.91736
1906-12-03,4204.95868
1906-12-04,5930.57851
1906-12-05,6505.78512
1906-12-06,6109.09091
1906-12-07,6109.09091
1906-12-08,6505.78512
1906-12-09,5573.55372
1906-12-10,5077.68595
1906-12-11,4780.16529
1906-12-12,5236.36364
1906-12-13,5077.68595
1906-12-14,4780.16529
1906-12-15,5077.68595
1906-12-16,4919.00826
1906-12-17,4482.64463
1906-12-18,4204.95868
1906-12-19,3947.10744
1906-12-20,3609.91736
1906-12-21,3490.90909
1906-12-22,3609.91736
1906-12-23,3609.91736
1906-12-24,3609.91736
1906-12-25,4343.80165
1906-12-26,5077.68595
1906-12-27,5077.68595
1906-12-28,5077.68595
1906-12-29,5395.04132
1906-12-30,5236.36364
1906-12-31,5752.06612
1907-01-01,5752.06612
1907-01-02,5573.55372
1907-01-03,5395.04132
1907-01-04,5236.36364
1907-01-05,5077.68595
1907-01-06,5077.68595
1907-01-07,4641.32231
1907-01-08,4204.95868
1907-01-09,4641.32231
1907-01-10,5077.68595
1907-01-11,5077.68595
1907-01-12,5077.68595
1907-01-13,4780.16529
1907-01-14,4780.16529
1907-01-15,4780.16529
1907-01-16,5077.68595
1907-01-17,5077.68595
1907-01-18,4919.00826
1907-01-19,4780.16529
1907-01-20,4641.32231
1907-01-21,4919.00826
1907-01-22,5236.36364
1907-01-23,4482.64463
1907-01-24,4204.95868
1907-01-25,3947.10744
1907-01-26,3609.91736
1907-01-27,4085.95041
1907-01-28,4482.64463
1907-01-29,4919.00826
1907-01-30,5077.68595
1907-01-31,5395.04132
1907-02-01,5395.04132
1907-02-02,5236.36364
1907-02-03,5077.68595
1907-02-04,5077.68595
1907-02-05,5395.04132
1907-02-06,5950.41322
1907-02-07,5950.41322
1907-02-08,5950.41322
1907-02-09,5950.41322
1907-02-10,5950.41322
1907-02-11,5950.41322
1907-02-12,5950.41322
1907-02-13,5950.41322
1907-02-14,5950.41322
1907-02-15,5950.41322
1907-02-16,5950.41322
1907-02-17,5950.41322
1907-02-18,5950.41322
1907-02-19,5950.41322
1907-02-20,5950.41322
1907-02-21,9322.31405
1907-02-22,11325.6198
1907-02-23,12614.876
1907-02-24,12932.2314
1907-02-25,10710.7438
1907-02-26,11642.9752
1907-02-27,11960.3306
1907-02-28,14757.0248
1907-03-01,15947.1074
1907-03-02,14757.0248
1907-03-03,14757.0248
1907-03-04,13289.2562
1907-03-05,11960.3306
1907-03-06,11008.2645
1907-03-07,10135.5372
1907-03-08,10413.2231
1907-03-09,9600.0
1907-03-10,8290.90909
1907-03-11,8290.90909
1907-03-12,8528.92562
1907-03-13,8786.77686
1907-03-14,8786.77686
1907-03-15,8290.90909
1907-03-16,8290.90909
1907-03-17,8290.90909
1907-03-18,7834.71074
1907-03-19,7378.5124
1907-03-20,7378.5124
1907-03-21,7378.5124
1907-03-22,12932.2314
1907-03-23,8290.90909
1907-03-24,14360.3306
1907-03-25,25586.7769
1907-03-26,26578.5124
1907-03-27,26578.5124
1907-03-28,25586.7769
1907-03-29,24000.0
1907-03-30,22016.5289
1907-03-31,20033.0579
1907-04-01,18604.9587
1907-04-02,17256.1984
1907-04-03,15550.4132
1907-04-04,14003.3058
1907-04-05,13626.4463
1907-04-06,11960.3306
1907-04-07,11960.3306
1907-04-08,14360.3306
1907-04-09,17256.1984
1907-04-10,18148.7603
1907-04-11,20033.0579
1907-04-12,21024.7934
1907-04-13,20429.7521
1907-04-14,23008.2645
1907-04-15,29355.3719
1907-04-16,33520.6612
1907-04-17,38479.3388
1907-04-18,43239.6694
1907-04-19,45223.1405
1907-04-20,49388.4298
1907-04-21,48595.0413
1907-04-22,48595.0413
1907-04-23,39867.7686
1907-04-24,34710.7438
1907-04-25,32330.5785
1907-04-26,31735.5372
1907-04-27,29950.4132
1907-04-28,29950.4132
1907-04-29,29950.4132
1907-04-30,29950.4132
1907-05-01,29950.4132
1907-05-02,31140.4959
1907-05-03,32925.6198
1907-05-04,32925.6198
1907-05-05,31735.5372
1907-05-06,29950.4132
1907-05-07,29355.3719
1907-05-08,28165.2893
1907-05-09,27768.595
1907-05-10,25983.4711
1907-05-11,25983.4711
1907-05-12,28165.2893
1907-05-13,31140.4959
1907-05-14,41851.2397
1907-05-15,47206.6116
1907-05-16,49388.4298
1907-05-17,49388.4298
1907-05-18,47206.6116
1907-05-19,45223.1405
1907-05-20,45223.1405
1907-05-21,52958.6777
1907-05-22,61289.2562
1907-05-23,69024.7934
1907-05-24,76165.2893
1907-05-25,81322.3141
1907-05-26,84297.5207
1907-05-27,82909.0909
1907-05-28,85090.9091
1907-05-29,80727.2727
1907-05-30,73388.4298
1907-05-31,59107.438
1907-06-01,62677.686
1907-06-02,59900.8265
1907-06-03,59107.438
1907-06-04,59107.438
1907-06-05,65454.5455
1907-06-06,72595.0413
1907-06-07,80727.2727
1907-06-08,84297.5207
1907-06-09,88859.5041
1907-06-10,92429.7521
1907-06-11,95404.9587
1907-06-12,94611.5703
1907-06-13,92429.7521
1907-06-14,88859.5041
1907-06-15,85090.9091
1907-06-16,80727.2727
1907-06-17,78545.4546
1907-06-18,76958.6777
1907-06-19,74776.8595
1907-06-20,74776.8595
1907-06-21,75570.2479
1907-06-22,74776.8595
1907-06-23,74776.8595
1907-06-24,73388.4298
1907-06-25,73388.4298
1907-06-26,72000.0
1907-06-27,73388.4298
1907-06-28,73983.4711
1907-06-29,76165.2893
1907-06-30,76165.2893
1907-07-01,76165.2893
1907-07-02,76165.2893
1907-07-03,75570.2479
1907-07-04,77752.0661
1907-07-05,79140.4959
1907-07-06,82115.7025
1907-07-07,83504.1322
1907-07-08,85090.9091
1907-07-09,85090.9091
1907-07-10,83504.1322
1907-07-11,83504.1322
1907-07-12,82115.7025
1907-07-13,79933.8843
1907-07-14,75570.2479
1907-07-15,72595.0413
1907-07-16,66842.9752
1907-07-17,63272.7273
1907-07-18,59900.8265
1907-07-19,54942.1488
1907-07-20,50181.8182
1907-07-21,47404.9587
1907-07-22,44826.4463
1907-07-23,42247.9339
1907-07-24,40264.4628
1907-07-25,40264.4628
1907-07-26,40264.4628
1907-07-27,40264.4628
1907-07-28,40264.4628
1907-07-29,39074.3802
1907-07-30,39074.3802
1907-07-31,37685.9504
1907-08-01,38280.9917
1907-08-02,35900.8265
1907-08-03,33917.3554
1907-08-04,32727.2727
1907-08-05,32132.2314
1907-08-06,30148.7603
1907-08-07,28958.6777
1907-08-08,27768.595
1907-08-09,27768.595
1907-08-10,26578.5124
1907-08-11,24198.3471
1907-08-12,23603.3058
1907-08-13,22016.5289
1907-08-14,22016.5289
1907-08-15,21421.4876
1907-08-16,21024.7934
1907-08-17,19418.1818
1907-08-18,17970.2479
1907-08-19,17057.8512
1907-08-20,16621.4876
1907-08-21,15748.7603
1907-08-22,15312.3967
1907-08-23,14479.3388
1907-08-24,14082.6446
1907-08-25,14479.3388
1907-08-26,14895.8678
1907-08-27,18446.281
1907-08-28,17057.8512
1907-08-29,16185.124
1907-08-30,15312.3967
1907-08-31,14479.3388
1907-09-01,13685.9504
1907-09-02,13685.9504
1907-09-03,13685.9504
1907-09-04,13685.9504
1907-09-05,15748.7603
1907-09-06,12892.562
1907-09-07,12515.7025
1907-09-08,12138.843
1907-09-09,12138.843
1907-09-10,11424.7934
1907-09-11,10750.4132
1907-09-12,10115.7025
1907-09-13,9480.99174
1907-09-14,9183.47107
1907-09-15,8885.95041
1907-09-16,8885.95041
1907-09-17,8608.26446
1907-09-18,8330.57851
1907-09-19,7576.8595
1907-09-20,7319.00826
1907-09-21,7319.00826
1907-09-22,6842.97521
1907-09-23,6842.97521
1907-09-24,6842.97521
1907-09-25,6386.77686
1907-09-26,6386.77686
1907-09-27,6386.77686
1907-09-28,6386.77686
1907-09-29,6386.77686
1907-09-30,6386.77686
1907-10-01,6842.97521
1907-10-02,6168.59504
1907-10-03,5950.41322
1907-10-04,6386.77686
1907-10-05,7319.00826
1907-10-06,7576.8595
1907-10-07,7814.87603
1907-10-08,7814.87603
1907-10-09,7319.00826
1907-10-10,7319.00826
1907-10-11,8072.72727
1907-10-12,8885.95041
1907-10-13,9480.99174
1907-10-14,10433.0579
1907-10-15,10433.0579
1907-10-16,9183.47107
1907-10-17,8072.72727
1907-10-18,7319.00826
1907-10-19,7319.00826
1907-10-20,6842.97521
1907-10-21,6624.79339
1907-10-22,6386.77686
1907-10-23,6386.77686
1907-10-24,6386.77686
1907-10-25,6386.77686
1907-10-26,6386.77686
1907-10-27,6386.77686
1907-10-28,6386.77686
1907-10-29,5950.41322
1907-10-30,5950.41322
1907-10-31,5950.41322
1907-11-01,5950.41322
1907-11-02,5950.41322
1907-11-03,5950.41322
1907-11-04,5950.41322
1907-11-05,5950.41322
1907-11-06,5950.41322
1907-11-07,5950.41322
1907-11-08,5950.41322
1907-11-09,5950.41322
1907-11-10,5533.8843
1907-11-11,5533.8843
1907-11-12,5533.8843
1907-11-13,5533.8843
1907-11-14,5533.8843
1907-11-15,5533.8843
1907-11-16,5137.19008
1907-11-17,5137.19008
1907-11-18,4958.67769
1907-11-19,4760.33058
1907-11-20,4760.33058
1907-11-21,4760.33058
1907-11-22,4403.30579
1907-11-23,4403.30579
1907-11-24,4403.30579
1907-11-25,4066.1157
1907-11-26,4066.1157
1907-11-27,3748.76033
1907-11-28,3748.76033
1907-11-29,3748.76033
1907-11-30,3748.76033
1907-12-01,3748.76033
1907-12-02,3451.23967
1907-12-03,3748.76033
1907-12-04,3609.91736
1907-12-05,3451.23967
1907-12-06,3451.23967
1907-12-07,3173.55372
1907-12-08,3173.55372
1907-12-09,3173.55372
1907-12-10,3173.55372
1907-12-11,2915.70248
1907-12-12,2915.70248
1907-12-13,2915.70248
1907-12-14,2915.70248
1907-12-15,2915.70248
1907-12-16,2677.68595
1907-12-17,2677.68595
1907-12-18,2677.68595
1907-12-19,2677.68595
1907-12-20,2677.68595
1907-12-21,2459.50413
1907-12-22,2459.50413
1907-12-23,2459.50413
1907-12-24,2459.50413
1907-12-25,2459.50413
1907-12-26,2459.50413
1907-12-27,2677.68595
1907-12-28,2677.68595
1907-12-29,2677.68595
1907-12-30,2677.68595
1907-12-31,2677.68595
1908-01-01,2578.5124
1908-01-02,2578.5124
1908-01-03,2578.5124
1908-01-04,2578.5124
1908-01-05,2578.5124
1908-01-06,2578.5124
1908-01-07,2578.5124
1908-01-08,2578.5124
1908-01-09,2578.5124
1908-01-10,2578.5124
1908-01-11,2578.5124
1908-01-12,2578.5124
1908-01-13,2578.5124
1908-01-14,2578.5124
1908-01-15,2578.5124
1908-01-16,2578.5124
1908-01-17,2578.5124
1908-01-18,2578.5124
1908-01-19,2578.5124
1908-01-20,2578.5124
1908-01-21,2578.5124
1908-01-22,2578.5124
1908-01-23,2578.5124
1908-01-24,2578.5124
1908-01-25,2578.5124
1908-01-26,2578.5124
1908-01-27,2578.5124
1908-01-28,2578.5124
1908-01-29,2578.5124
1908-01-30,2578.5124
1908-01-31,2578.5124
1908-02-01,2776.8595
1908-02-02,2776.8595
1908-02-03,2776.8595
1908-02-04,2776.8595
1908-02-05,2776.8595
1908-02-06,2776.8595
1908-02-07,2776.8595
1908-02-08,2776.8595
1908-02-09,2776.8595
1908-02-10,2776.8595
1908-02-11,2975.20661
1908-02-12,2975.20661
1908-02-13,2975.20661
1908-02-14,2975.20661
1908-02-15,2975.20661
1908-02-16,2975.20661
1908-02-17,2975.20661
1908-02-18,2975.20661
1908-02-19,2975.20661
1908-02-20,2975.20661
1908-02-21,2975.20661
1908-02-22,2975.20661
1908-02-23,3451.23967
1908-02-24,3451.23967
1908-02-25,3451.23967
1908-02-26,3748.76033
1908-02-27,3748.76033
1908-02-28,3451.23967
1908-02-29,3451.23967
1908-03-01,3451.23967
1908-03-02,3451.23967